Temp
-11 -11 -11 -11 -11 -11 -11 -11 -11 -11 -10 -10 -10 -11 -11 -11 -11 -10 -10 -10 -10 -10 -10 -11 -11 -11 -11 -11 -12 -12 -13 -13 -13 -12 -12 -12 -12 -12 -12 -12 -11 -11 -11 -11 -11 -10 -10 -10 -10 -10 -9 -9 -10 -9
-11 -11 -11 -11 -11 -11 -11 -11 -11 -11 -11 -10 -10 -10 -10 -10 -10 -10 -10 -11 -11 -10 -10 -11 -11 -11 -11 -11 -12 -12 -13 -13 -13 -12 -12 -12 -12 -12 -11 -11 -11 -12 -11 -11 -10 -10 -11 -10 -10 -10 -10 -10 -10 -10
-11 -11 -11 -11 -11 -11 -11 -11 -11 -10 -10 -10 -11 -11 -10 -10 -10 -10 -10 -10 -11 -10 -11 -11 -11 -10 -10 -11 -11 -12 -12 -12 -13 -13 -13 -12 -13 -12 -12 -11 -12 -11 -11 -11 -11 -11 -11 -10 -10 -10 -10 -10 -10 -10
-10 -10 -10 -10 -10 -10 -10 -11 -11 -11 -11 -11 -11 -10 -10 -10 -11 -11 -10 -10 -10 -11 -11 -11 -11 -11 -11 -11 -12 -12 -12 -12 -12 -13 -12 -12 -13 -12 -12 -12 -12 -11 -11 -11 -11 -11 -10 -10 -10 -10 -10 -10 -10 -10
-10 -10 -10 -10 -11 -11 -11 -11 -11 -11 -11 -11 -11 -11 -11 -11 -11 -11 -11 -11 -11 -11 -11 -11 -11 -11 -11 -11 -12 -12 -12 -12 -12 -12 -12 -12 -12 -12 -12 -12 -12 -12 -12 -12 -11 -11 -11 -10 -10 -10 -10 -10 -10 -11
-10 -10 -11 -11 -11 -11 -11 -11 -11 -11 -11 -11 -11 -11 -11 -11 -11 -11 -11 -11 -11 -11 -11 -11 -11 -11 -11 -11 -12 -12 -12 -12 -12 -12 -12 -12 -13 -13 -13 -12 -13 -12 -12 -12 -12 -12 -11 -11 -11 -10 -10 -10 -10 -10
-11 -11 -11 -11 -11 -11 -11 -11 -11 -11 -11 -11 -11 -11 -11 -11 -11 -11 -11 -11 -11 -11 -11 -11 -11 -11 -11 -11 -11 -12 -12 -12 -12 -12 -12 -12 -12 -12 -13 -12 -12 -12 -12 -12 -12 -12 -12 -11 -11 -11 -11 -10 -10 -11
-11 -11 -11 -11 -11 -11 -11 -11 -11 -11 -11 -11 -11 -11 -11 -11 -11 -11 -11 -11 -11 -11 -11 -11 -12 -11 -11 -12 -12 -12 -11 -12 -12 -12 -12 -12 -12 -12 -12 -12 -13 -12 -12 -12 -12 -12 -12 -11 -11 -11 -11 -11 -11 -10
-11 -11 -11 -11 -11 -12 -12 -12 -12 -12 -11 -11 -12 -12 -12 -12 -12 -11 -11 -11 -11 -11 -11 -12 -12 -12 -11 -11 -12 -12 -12 -11 -11 -11 -11 -12 -12 -12 -12 -12 -12 -12 -12 -12 -12 -12 -11 -11 -11 -11 -11 -11 -11 -11
-11 -11 -11 -11 -12 -12 -12 -12 -11 -11 -12 -12 -12 -12 -12 -12 -12 -12 -12 -12 -12 -12 -12 -12 -12 -12 -12 -12 -12 -12 -11 -11 -11 -11 -11 -11 -11 -12 -12 -12 -12 -12 -12 -12 -12 -11 -11 -11 -11 -11 -11 -11 -11 -11
-11 -11 -11 -11 -11 -12 -12 -12 -12 -12 -12 -12 -13 -13 -13 -13 -13 -13 -13 -13 -13 -13 -13 -13 -12 -12 -12 -12 -12 -12 -12 -12 -11 -11 -11 -11 -11 -11 -12 -12 -12 -12 -12 -12 -12 -11 -11 -11 -11 -11 -11 -11 -11 -11
-12 -12 -12 -12 -12 -12 -12 -12 -12 -12 -13 -13 -13 -13 -13 -14 -14 -14 -14 -14 -14 -14 -14 -14 -13 -13 -13 -13 -12 -13 -13 -12 -11 -11 -11 -11 -12 -11 -11 -11 -11 -11 -12 -12 -12 -11 -11 -11 -11 -11 -11 -11 -11 -11
-12 -12 -12 -12 -12 -12 -12 -12 -13 -13 -13 -14 -14 -13 -14 -14 -14 -15 -15 -15 -15 -15 -14 -14 -14 -14 -13 -13 -13 -13 -12 -12 -11 -12 -12 -12 -12 -12 -12 -11 -12 -12 -12 -11 -11 -11 -11 -11 -11 -11 -11 -11 -11 -11
-12 -12 -12 -12 -12 -12 -13 -13 -13 -14 -14 -14 -14 -14 -15 -15 -16 -17 -17 -17 -17 -16 -16 -16 -15 -15 -14 -13 -13 -13 -12 -12 -12 -12 -12 -12 -12 -12 -12 -12 -12 -12 -12 -12 -12 -12 -12 -12 -12 -12 -12 -11 -11 -11
-12 -12 -12 -12 -13 -13 -13 -14 -14 -14 -14 -15 -15 -15 -16 -17 -17 -18 -18 -18 -18 -17 -17 -16 -15 -15 -15 -14 -14 -13 -13 -12 -12 -12 -12 -13 -12 -12 -13 -13 -12 -12 -12 -13 -13 -13 -13 -13 -13 -12 -12 -12 -12 -12
-13 -13 -13 -13 -13 -13 -14 -15 -15 -15 -15 -15 -16 -16 -17 -17 -18 -18 -18 -18 -18 -18 -17 -17 -16 -15 -14 -14 -14 -13 -13 -13 -13 -13 -13 -13 -13 -13 -13 -13 -13 -13 -13 -13 -13 -13 -13 -13 -13 -13 -13 -13 -13 -13
-13 -13 -13 -13 -14 -14 -15 -15 -15 -15 -16 -16 -16 -17 -17 -17 -17 -18 -18 -18 -18 -18 -17 -17 -17 -16 -15 -14 -14 -14 -14 -14 -13 -13 -13 -13 -13 -13 -13 -13 -13 -14 -14 -14 -14 -14 -14 -13 -13 -13 -13 -13 -13 -13
-13 -13 -13 -14 -14 -15 -15 -16 -16 -16 -16 -16 -16 -17 -17 -17 -18 -18 -18 -18 -18 -18 -17 -17 -17 -16 -16 -15 -15 -14 -15 -14 -14 -14 -13 -13 -13 -13 -13 -14 -14 -14 -14 -14 -14 -14 -14 -14 -14 -13 -13 -13 -13 -14
-14 -14 -14 -14 -15 -15 -16 -16 -16 -16 -16 -16 -16 -17 -17 -17 -18 -18 -18 -18 -18 -18 -18 -17 -17 -17 -16 -15 -15 -15 -14 -14 -14 -14 -14 -14 -14 -14 -14 -14 -14 -14 -14 -14 -14 -14 -14 -14 -14 -14 -15 -14 -15 -15
-14 -14 -14 -15 -15 -16 -16 -16 -17 -17 -16 -17 -17 -16 -17 -17 -17 -17 -17 -17 -17 -17 -17 -17 -16 -16 -16 -15 -15 -15 -15 -15 -15 -15 -14 -14 -14 -15 -15 -14 -15 -14 -14 -15 -15 -15 -14 -14 -15 -15 -15 -15 -15 -16
-14 -14 -14 -15 -16 -16 -16 -17 -17 -17 -17 -17 -17 -17 -17 -17 -17 -16 -16 -17 -18 -17 -16 -16 -16 -16 -16 -15 -15 -15 -15 -16 -16 -15 -15 -15 -15 -15 -15 -15 -15 -15 -15 -15 -15 -15 -15 -15 -16 -16 -16 -16 -16 -16
-14 -15 -15 -15 -16 -16 -16 -16 -17 -17 -17 -17 -17 -17 -17 -17 -17 -16 -16 -16 -16 -16 -16 -15 -15 -15 -15 -15 -15 -15 -16 -16 -15 -15 -15 -15 -15 -15 -15 -15 -15 -15 -15 -15 -15 -15 -16 -16 -16 -16 -16 -17 -17 -17
-15 -15 -15 -16 -16 -16 -16 -16 -16 -17 -17 -17 -17 -17 -17 -17 -17 -17 -17 -16 -16 -17 -16 -16 -16 -16 -16 -16 -16 -16 -16 -16 -16 -16 -16 -16 -15 -15 -16 -15 -15 -15 -15 -15 -15 -15 -15 -16 -17 -17 -17 -17 -17 -17
-15 -15 -16 -16 -16 -16 -16 -16 -16 -16 -17 -17 -17 -17 -17 -17 -17 -17 -17 -17 -17 -16 -16 -16 -16 -17 -17 -17 -17 -16 -16 -16 -16 -16 -16 -16 -16 -16 -16 -16 -16 -15 -15 -15 -15 -15 -15 -16 -16 -17 -17 -17 -17 -18
-16 -16 -17 -16 -16 -16 -16 -16 -16 -16 -16 -16 -17 -17 -17 -17 -17 -17 -17 -17 -17 -17 -17 -17 -17 -17 -17 -17 -17 -17 -17 -17 -17 -17 -17 -16 -17 -16 -16 -16 -16 -15 -15 -15 -15 -16 -15 -16 -16 -16 -17 -17 -17 -17
-17 -17 -17 -17 -16 -16 -16 -16 -16 -16 -16 -17 -17 -17 -17 -17 -17 -17 -17 -17 -17 -17 -17 -17 -17 -17 -17 -17 -17 -17 -17 -17 -17 -17 -17 -17 -17 -16 -16 -16 -16 -16 -16 -16 -16 -16 -16 -16 -16 -16 -17 -17 -17 -17
-18 -18 -18 -17 -17 -17 -17 -17 -17 -17 -17 -17 -17 -17 -17 -17 -17 -17 -17 -18 -17 -17 -17 -18 -17 -17 -17 -17 -17 -17 -17 -17 -17 -17 -17 -17 -17 -16 -16 -16 -16 -16 -16 -16 -16 -16 -17 -17 -17 -17 -17 -17 -18 -18
-19 -18 -18 -17 -17 -17 -17 -17 -17 -17 -17 -17 -17 -17 -17 -17 -17 -17 -17 -18 -18 -17 -18 -18 -18 -18 -17 -17 -17 -17 -17 -17 -17 -17 -17 -17 -17 -16 -16 -16 -16 -16 -16 -16 -17 -17 -17 -17 -17 -17 -18 -18 -18 -18
-18 -18 -18 -18 -17 -17 -17 -17 -17 -17 -17 -17 -17 -17 -17 -17 -18 -17 -17 -17 -18 -18 -18 -18 -18 -18 -18 -17 -17 -17 -18 -18 -18 -18 -17 -17 -17 -17 -17 -17 -17 -17 -17 -17 -17 -17 -17 -17 -18 -18 -18 -18 -18 -18
-18 -18 -18 -17 -17 -17 -17 -17 -17 -17 -17 -18 -18 -18 -18 -18 -18 -17 -17 -18 -18 -18 -18 -18 -18 -18 -18 -18 -18 -18 -18 -18 -18 -17 -17 -17 -17 -17 -17 -17 -17 -17 -17 -17 -17 -17 -17 -17 -18 -18 -18 -18 -18 -18
-17 -17 -17 -17 -17 -17 -17 -17 -17 -17 -18 -18 -18 -18 -18 -18 -17 -17 -17 -17 -18 -17 -18 -18 -18 -18 -18 -18 -18 -18 -18 -18 -17 -17 -17 -17 -17 -17 -17 -17 -17 -17 -17 -17 -17 -17 -17 -17 -18 -18 -18 -18 -18 -18
-17 -17 -17 -17 -17 -17 -17 -17 -17 -17 -18 -18 -18 -18 -18 -18 -17 -17 -17 -18 -17 -18 -18 -18 -18 -18 -18 -18 -18 -17 -18 -17 -17 -17 -17 -17 -17 -17 -17 -17 -17 -17 -17 -17 -17 -17 -17 -17 -18 -18 -18 -18 -18 -18
-16 -17 -17 -17 -17 -17 -17 -17 -17 -17 -17 -17 -18 -17 -17 -17 -17 -18 -18 -18 -18 -18 -18 -18 -18 -18 -18 -18 -18 -18 -18 -17 -17 -17 -17 -17 -17 -17 -17 -17 -17 -17 -17 -17 -17 -17 -17 -17 -18 -18 -18 -18 -18 -18
Height
5778 5776 5774 5772 5770 5768 5766 5763 5761 5758 5756 5754 5751 5749 5747 5745 5744 5743 5742 5741 5741 5741 5741 5742 5743 5745 5748 5750 5753 5758 5761 5764 5767 5770 5773 5776 5778 5782 5784 5788 5790 5794 5797 5801 5804 5806 5809 5815 5817 5819 5821 5823 5825 5827
5779 5776 5774 5772 5770 5768 5765 5763 5760 5758 5755 5753 5751 5748 5746 5744 5742 5741 5739 5739 5738 5737 5738 5738 5740 5741 5743 5746 5750 5752 5756 5758 5761 5763 5765 5768 5770 5773 5776 5779 5782 5784 5787 5791 5797 5798 5802 5806 5808 5809 5812 5814 5815 5817
5778 5776 5774 5772 5769 5767 5764 5762 5759 5757 5754 5752 5749 5747 5745 5742 5740 5739 5737 5736 5735 5734 5734 5734 5735 5737 5739 5742 5745 5749 5750 5752 5754 5754 5755 5758 5762 5766 5769 5771 5774 5776 5779 5782 5787 5789 5793 5797 5798 5801 5803 5805 5805 5807
5777 5775 5773 5770 5768 5765 5762 5759 5757 5754 5751 5749 5747 5745 5743 5741 5739 5736 5735 5733 5732 5731 5731 5732 5732 5733 5735 5738 5740 5741 5744 5746 5746 5747 5747 5750 5754 5758 5761 5765 5768 5770 5772 5774 5778 5782 5785 5787 5789 5792 5793 5795 5794 5795
5776 5774 5771 5768 5765 5762 5759 5756 5753 5751 5748 5746 5743 5741 5739 5737 5736 5734 5732 5731 5729 5730 5728 5729 5729 5729 5731 5733 5735 5737 5739 5740 5742 5744 5745 5747 5749 5752 5755 5757 5761 5763 5765 5767 5769 5773 5776 5778 5781 5782 5784 5783 5784 5784
5773 5771 5768 5764 5761 5758 5754 5751 5748 5746 5743 5740 5738 5736 5734 5733 5731 5730 5729 5728 5727 5726 5725 5725 5726 5726 5727 5728 5730 5732 5733 5736 5738 5740 5742 5744 5747 5748 5749 5750 5753 5756 5758 5759 5761 5764 5768 5771 5772 5774 5774 5774 5775 5775
5770 5766 5763 5760 5756 5752 5748 5745 5742 5739 5736 5733 5731 5730 5728 5727 5725 5725 5725 5724 5723 5722 5721 5721 5721 5722 5723 5724 5725 5727 5729 5731 5733 5734 5736 5738 5741 5743 5746 5749 5750 5751 5752 5754 5757 5759 5761 5764 5765 5766 5767 5767 5768 5767
5765 5761 5758 5754 5750 5746 5741 5738 5735 5732 5729 5726 5724 5722 5721 5720 5719 5718 5717 5716 5717 5717 5717 5717 5717 5718 5719 5720 5721 5722 5723 5725 5726 5728 5730 5732 5735 5737 5740 5743 5745 5745 5748 5750 5751 5753 5755 5757 5758 5759 5760 5759 5761 5761
5759 5755 5751 5747 5743 5739 5734 5729 5726 5723 5720 5717 5714 5713 5711 5710 5710 5709 5708 5708 5708 5711 5710 5711 5711 5711 5712 5714 5716 5717 5718 5719 5721 5722 5724 5726 5729 5731 5735 5736 5738 5738 5741 5743 5744 5746 5747 5749 5750 5751 5752 5753 5754 5754
5753 5749 5744 5740 5735 5730 5725 5720 5716 5713 5709 5706 5704 5701 5699 5698 5697 5698 5697 5697 5698 5699 5702 5703 5703 5704 5706 5707 5708 5711 5712 5713 5715 5717 5718 5720 5723 5725 5727 5729 5731 5732 5734 5735 5737 5739 5740 5741 5742 5744 5745 5747 5747 5747
5746 5741 5737 5732 5727 5721 5716 5711 5706 5702 5698 5695 5691 5689 5687 5686 5685 5685 5685 5687 5688 5689 5691 5693 5696 5698 5700 5701 5703 5704 5705 5707 5709 5711 5713 5715 5717 5718 5720 5722 5724 5726 5727 5729 5731 5732 5733 5734 5736 5737 5738 5739 5740 5740
5739 5735 5729 5723 5718 5712 5707 5701 5695 5691 5686 5682 5678 5675 5674 5673 5672 5672 5673 5675 5677 5679 5681 5683 5687 5690 5693 5695 5697 5699 5700 5700 5703 5707 5707 5710 5712 5712 5714 5716 5718 5720 5721 5723 5724 5726 5727 5728 5728 5729 5730 5731 5731 5732
5733 5727 5721 5715 5709 5702 5697 5691 5685 5679 5674 5671 5669 5666 5664 5662 5659 5658 5659 5662 5665 5667 5670 5674 5677 5681 5684 5688 5690 5693 5693 5695 5699 5700 5702 5704 5704 5706 5708 5710 5712 5713 5715 5717 5719 5720 5720 5721 5722 5723 5723 5724 5724 5725
5725 5719 5713 5706 5700 5693 5687 5681 5675 5671 5667 5664 5661 5658 5654 5651 5648 5648 5648 5650 5653 5657 5661 5664 5667 5672 5676 5679 5682 5685 5687 5690 5692 5696 5698 5698 5698 5701 5703 5705 5707 5709 5710 5711 5713 5714 5715 5715 5716 5716 5716 5717 5716 5716
5719 5711 5705 5698 5692 5686 5679 5672 5668 5665 5661 5657 5654 5650 5645 5641 5639 5638 5638 5640 5643 5647 5650 5654 5660 5664 5666 5670 5673 5678 5681 5684 5690 5692 5692 5692 5695 5696 5698 5700 5701 5703 5704 5705 5706 5708 5708 5709 5709 5709 5709 5708 5708 5708
5712 5704 5697 5690 5684 5678 5671 5667 5663 5660 5656 5652 5648 5645 5641 5638 5635 5633 5632 5633 5637 5640 5643 5647 5650 5655 5660 5662 5666 5670 5675 5681 5683 5683 5686 5689 5691 5692 5693 5694 5695 5696 5697 5698 5700 5701 5702 5703 5703 5703 5702 5702 5701 5700
5703 5697 5690 5684 5678 5671 5666 5663 5660 5657 5652 5648 5645 5641 5638 5636 5633 5630 5628 5629 5630 5634 5637 5641 5643 5646 5648 5654 5659 5664 5669 5673 5676 5679 5681 5683 5685 5688 5689 5690 5691 5692 5693 5693 5694 5694 5695 5695 5695 5695 5694 5693 5692 5691
5696 5690 5684 5678 5673 5667 5663 5660 5657 5654 5649 5645 5642 5639 5636 5633 5631 5628 5626 5625 5626 5628 5632 5636 5639 5642 5645 5648 5653 5657 5662 5667 5671 5673 5676 5678 5680 5682 5684 5685 5686 5687 5688 5688 5688 5688 5688 5688 5687 5687 5686 5685 5684 5682
5690 5684 5679 5674 5669 5664 5661 5658 5655 5651 5648 5644 5640 5637 5634 5631 5628 5626 5623 5623 5624 5625 5628 5632 5636 5640 5643 5648 5651 5654 5658 5663 5667 5669 5672 5674 5676 5678 5679 5681 5681 5682 5682 5682 5682 5682 5682 5681 5681 5680 5679 5678 5676 5675
5684 5678 5674 5670 5666 5662 5659 5656 5654 5651 5647 5644 5641 5636 5634 5632 5628 5624 5622 5621 5622 5623 5627 5631 5635 5638 5642 5645 5648 5652 5656 5658 5662 5667 5669 5670 5671 5673 5674 5674 5675 5675 5675 5676 5676 5676 5676 5675 5674 5674 5672 5671 5670 5669
5677 5673 5669 5666 5662 5660 5657 5654 5653 5651 5648 5645 5643 5639 5637 5634 5631 5626 5625 5625 5625 5624 5627 5631 5632 5635 5640 5645 5647 5651 5654 5658 5661 5664 5664 5666 5668 5669 5670 5670 5670 5671 5672 5671 5672 5671 5670 5668 5668 5668 5667 5666 5665 5664
5670 5667 5664 5661 5659 5657 5655 5653 5652 5650 5649 5647 5644 5642 5640 5638 5635 5632 5630 5627 5629 5630 5631 5633 5635 5636 5641 5645 5648 5650 5653 5655 5658 5661 5662 5664 5664 5664 5666 5666 5666 5666 5667 5667 5666 5665 5664 5662 5662 5662 5662 5661 5660 5659
5664 5662 5660 5658 5657 5656 5655 5653 5651 5650 5648 5647 5645 5644 5643 5641 5640 5638 5636 5636 5637 5637 5638 5639 5640 5641 5643 5645 5648 5649 5652 5655 5657 5658 5658 5659 5661 5661 5661 5661 5662 5662 5663 5663 5661 5659 5658 5657 5656 5656 5656 5655 5654 5653
5657 5657 5655 5655 5655 5655 5654 5653 5652 5651 5649 5648 5647 5646 5645 5644 5643 5642 5642 5641 5641 5640 5641 5642 5643 5644 5646 5647 5649 5652 5654 5654 5654 5655 5657 5659 5659 5658 5659 5659 5660 5660 5661 5660 5659 5657 5655 5654 5653 5652 5652 5651 5650 5649
5652 5652 5652 5652 5653 5654 5654 5653 5653 5652 5651 5651 5650 5649 5648 5647 5646 5645 5644 5644 5643 5643 5643 5643 5645 5646 5647 5649 5650 5650 5651 5653 5654 5655 5656 5656 5656 5658 5658 5659 5660 5660 5660 5659 5658 5656 5654 5653 5651 5650 5648 5647 5646 5644
5648 5648 5650 5651 5653 5655 5655 5655 5655 5654 5653 5652 5651 5651 5650 5649 5648 5647 5646 5646 5646 5645 5645 5646 5646 5646 5647 5648 5649 5650 5652 5652 5652 5654 5655 5656 5657 5658 5659 5659 5659 5659 5657 5656 5655 5654 5653 5651 5650 5648 5646 5644 5643 5641
5645 5648 5651 5653 5654 5655 5656 5656 5655 5655 5654 5653 5651 5651 5650 5649 5648 5648 5647 5647 5646 5646 5646 5646 5646 5647 5648 5649 5650 5651 5651 5652 5654 5655 5656 5657 5658 5659 5659 5659 5658 5657 5656 5655 5653 5652 5651 5649 5648 5646 5644 5642 5640 5638
5647 5651 5654 5656 5657 5658 5657 5657 5656 5655 5653 5652 5650 5649 5649 5649 5649 5649 5648 5648 5647 5647 5647 5647 5647 5648 5648 5649 5650 5651 5653 5654 5654 5656 5657 5658 5658 5659 5659 5658 5657 5656 5655 5654 5652 5651 5650 5648 5646 5643 5641 5638 5636 5633
5655 5658 5660 5661 5661 5661 5660 5659 5657 5654 5652 5649 5647 5647 5647 5647 5647 5647 5648 5648 5647 5648 5648 5648 5648 5648 5648 5649 5651 5652 5653 5654 5655 5656 5656 5657 5657 5658 5657 5656 5655 5654 5653 5651 5650 5649 5647 5645 5642 5640 5637 5634 5631 5628
5664 5664 5664 5664 5664 5662 5661 5660 5657 5652 5649 5647 5645 5644 5644 5645 5645 5645 5646 5646 5647 5648 5648 5648 5648 5649 5649 5650 5651 5652 5653 5655 5656 5657 5657 5657 5657 5656 5656 5654 5653 5652 5650 5649 5648 5646 5644 5641 5638 5635 5632 5629 5626 5623
5669 5669 5668 5667 5665 5664 5662 5660 5656 5652 5649 5646 5643 5642 5642 5643 5642 5643 5643 5646 5647 5648 5649 5649 5650 5650 5651 5652 5653 5654 5655 5656 5656 5656 5656 5656 5655 5655 5654 5653 5651 5650 5648 5646 5644 5642 5640 5637 5634 5630 5627 5624 5621 5617
5673 5672 5671 5669 5668 5666 5663 5661 5658 5654 5650 5647 5645 5643 5643 5643 5643 5645 5646 5647 5648 5649 5649 5650 5651 5652 5652 5653 5654 5655 5656 5657 5657 5657 5657 5656 5655 5653 5652 5650 5648 5646 5644 5642 5640 5638 5635 5632 5629 5625 5621 5618 5614 5610
5675 5674 5673 5672 5670 5668 5666 5664 5661 5658 5656 5653 5651 5650 5648 5649 5649 5649 5649 5649 5649 5649 5650 5651 5653 5653 5655 5655 5656 5656 5656 5655 5655 5656 5655 5653 5652 5650 5649 5647 5644 5642 5640 5638 5636 5633 5629 5625 5621 5618 5614 5610 5606 5602
Wind_Speed
10 11 12 12 12 13 13 14 14 15 14 15 13 13 8 9 10 9 9 9 10 11 14 16 17 20 21 23 25 25 27 30 32 35 36 35 35 33 31 29 29 37 38 40 38 37 33 30 29 29 26 24 22 20
11 11 11 12 12 13 13 14 14 14 13 12 12 13 13 10 10 10 9 8 9 10 13 15 16 16 20 21 22 22 22 22 22 26 29 31 32 28 24 30 30 30 36 36 39 37 34 34 32 31 30 27 26 25
10 9 9 10 13 14 15 14 13 13 13 13 13 12 11 11 11 10 10 9 8 9 11 16 16 15 17 19 19 21 26 28 27 26 29 32 29 26 27 26 28 28 29 31 31 31 32 33 34 32 31 30 27 28
9 9 10 12 14 16 19 19 18 14 12 12 12 12 12 12 11 10 9 9 9 8 9 13 16 15 14 14 17 22 21 23 25 24 21 23 27 27 26 26 26 23 25 29 35 36 37 36 34 32 32 35 35 36
11 12 15 16 18 20 21 22 22 18 16 16 16 15 13 12 12 11 9 8 8 8 8 10 14 16 15 15 18 20 21 21 20 17 12 14 29 32 26 23 22 24 24 26 31 31 33 33 31 30 32 37 40 37
14 16 18 21 24 25 26 26 23 20 21 22 22 21 17 14 13 13 13 11 9 9 9 9 11 14 16 16 19 20 19 19 19 19 20 18 17 18 17 15 19 21 26 23 22 28 27 25 28 26 23 25 24 32
20 22 25 26 27 28 28 26 25 23 22 22 20 16 15 15 15 16 15 15 13 11 10 10 10 11 14 15 17 19 21 21 21 21 22 22 25 25 21 19 23 24 23 22 22 21 22 24 26 24 26 27 24 26
26 26 26 26 28 28 29 30 29 28 26 24 23 23 22 20 20 19 19 18 18 16 13 12 12 13 14 16 17 17 19 20 21 22 23 24 25 25 23 21 24 22 27 26 27 27 27 28 27 26 26 21 24 27
26 27 28 28 29 30 31 33 31 31 29 28 28 28 28 27 27 26 25 24 22 21 19 16 16 17 16 16 17 19 19 20 21 21 21 24 23 23 21 24 28 30 31 32 30 30 31 31 32 32 31 30 30 31
26 28 30 32 31 30 29 32 32 30 30 30 31 31 31 31 31 30 28 28 26 25 23 23 23 20 19 19 18 19 20 20 20 19 20 21 21 22 24 25 27 29 30 32 32 33 33 33 32 31 29 28 29 28
30 30 30 30 31 32 31 31 33 34 35 35 34 35 34 34 33 32 32 30 29 28 27 28 27 24 21 22 21 21 21 20 19 19 18 17 16 19 21 22 25 28 29 28 29 30 30 29 29 27 27 26 26 26
29 30 33 34 35 34 35 37 35 35 35 36 36 34 33 32 33 35 35 32 31 31 29 29 28 27 24 24 24 22 23 24 21 18 19 16 17 19 19 21 23 23 25 27 26 26 25 24 25 26 26 26 26 26
31 33 35 35 36 38 35 34 37 37 29 23 20 23 25 27 29 31 32 31 30 30 30 28 27 28 28 26 25 24 27 26 19 19 17 16 19 20 21 20 19 20 22 23 24 24 25 25 24 25 25 25 26 26
35 36 37 37 38 35 35 38 30 25 19 22 25 24 24 25 23 23 25 26 25 24 24 24 25 26 27 27 28 28 28 24 22 17 17 20 21 18 16 17 18 18 17 18 19 20 20 21 22 23 25 26 27 28
37 39 39 38 36 34 38 28 22 18 21 23 24 22 20 20 18 19 20 20 21 21 22 20 21 22 25 27 29 28 25 25 16 15 20 23 20 18 17 17 17 17 18 19 19 19 19 20 21 21 21 21 22 23
39 39 38 37 34 37 30 22 17 19 21 21 20 14 15 14 12 13 15 16 19 19 19 24 26 21 23 28 27 26 24 17 18 20 20 19 19 19 19 19 20 20 20 18 18 18 17 16 18 19 19 20 22 24
40 37 36 32 33 30 23 18 17 20 19 17 16 15 15 13 11 12 10 12 21 22 23 22 26 30 18 35 24 23 18 22 21 18 18 18 18 18 19 19 19 19 19 19 19 19 18 19 21 23 26 28 31 32
39 37 33 29 31 25 18 16 18 17 17 15 11 11 12 11 11 13 9 8 12 18 22 28 24 25 27 22 14 19 25 21 19 18 18 18 17 17 18 18 18 19 19 21 22 23 24 25 26 27 27 29 31 30
35 35 28 28 24 20 16 15 15 16 16 11 10 11 12 11 12 12 9 7 7 7 15 17 22 24 24 25 14 22 23 20 21 19 17 16 15 16 16 16 17 19 20 20 20 21 22 23 24 25 25 26 25 24
34 30 23 26 20 18 14 13 12 13 12 11 14 14 12 13 15 10 5 3 3 8 11 8 8 13 16 15 13 18 20 16 15 13 13 13 14 15 16 17 17 18 19 17 18 21 24 26 26 24 22 21 22 21
32 23 22 21 17 15 13 11 8 8 12 11 14 13 14 14 17 11 6 4 8 3 7 7 6 17 17 21 20 16 15 16 16 13 9 11 14 15 16 16 16 18 17 19 22 24 21 20 19 18 17 17 17 18
24 17 20 15 14 9 8 8 6 4 6 11 11 11 10 14 14 14 19 20 22 17 15 21 21 23 20 22 19 11 11 10 7 6 8 13 11 11 14 15 14 15 16 16 16 16 16 18 18 18 17 16 16 17
14 14 16 10 6 5 5 7 7 7 5 7 8 8 9 11 12 12 11 15 14 12 11 12 13 12 11 11 8 6 5 5 7 8 9 10 11 9 7 7 8 9 9 10 11 12 13 13 12 13 14 15 15 15
9 12 9 4 1 2 5 7 9 10 11 11 9 8 9 9 9 10 7 5 5 3 3 4 4 4 5 7 8 8 7 5 4 5 7 8 6 4 3 4 4 3 3 3 4 5 5 5 7 10 11 12 15 16
7 7 3 4 6 7 7 7 8 8 9 9 9 8 8 7 7 7 7 7 4 5 3 2 1 1 3 4 5 4 4 4 7 7 6 5 6 6 5 4 5 4 1 2 4 6 8 8 9 9 10 12 15 17
5 3 7 8 10 10 8 7 6 7 8 7 7 6 6 5 7 7 7 5 4 4 3 3 3 3 1 1 1 4 6 6 6 8 7 5 5 5 6 5 2 2 3 6 9 10 10 10 10 10 11 12 12 13
2 7 11 12 13 12 9 7 8 8 7 5 4 4 4 2 2 4 6 6 5 3 4 3 4 4 4 4 5 6 5 7 7 6 6 7 7 6 4 2 2 5 7 9 8 9 11 12 12 12 11 12 12 13
14 14 15 16 13 10 11 11 12 10 9 13 8 3 5 4 3 2 2 2 3 3 2 3 3 3 4 5 6 6 6 7 7 7 7 6 6 6 3 3 5 7 9 8 9 7 8 10 12 13 15 16 17 18
19 18 14 10 6 8 10 10 12 15 15 14 11 5 8 6 5 2 1 1 2 3 1 4 3 4 7 6 6 5 6 5 7 6 5 5 4 4 5 7 8 9 9 7 7 9 13 15 16 16 17 18 19 20
16 14 13 11 10 10 10 13 18 19 17 13 11 6 3 7 6 7 5 5 4 3 1 3 4 3 5 7 8 9 8 8 5 4 4 4 4 5 7 9 10 9 9 9 10 13 16 19 19 19 20 21 21 22
13 11 10 9 8 9 12 16 21 21 16 14 11 6 1 5 7 12 7 8 7 5 3 4 5 9 10 9 9 9 7 5 4 2 2 4 6 8 10 11 11 12 12 13 15 16 19 20 21 23 24 25 25 25
10 11 13 12 12 14 15 17 19 21 21 16 11 9 5 4 8 11 8 4 5 6 7 7 8 8 7 6 5 4 3 2 2 3 6 8 10 11 13 12 14 14 15 16 18 21 22 23 24 25 25 25 25 27
7 9 11 13 14 13 15 18 20 18 18 17 17 18 19 16 10 8 6 5 5 6 8 9 7 6 5 4 3 1 1 3 4 5 7 8 10 11 12 15 16 16 17 18 21 24 26 28 28 27 27 27 29 31
Wind_Direction
18 15 11 9 7 4 1 0 2 4 7 10 9 2 331 330 333 321 308 297 279 258 233 236 237 231 230 228 226 227 230 234 240 243 246 249 251 250 250 245 240 237 237 234 236 233 235 246 248 250 252 260 261 252
357 3 13 14 13 11 5 358 353 350 351 355 359 2 7 346 332 334 325 311 291 270 243 240 239 239 232 229 228 228 228 228 238 247 247 245 247 245 242 246 240 242 235 236 244 245 247 245 253 254 256 261 262 254
353 354 350 0 4 0 359 352 347 349 349 347 341 341 345 342 349 336 325 322 306 281 246 241 246 246 242 231 233 226 228 232 249 248 238 234 230 235 245 234 237 236 232 234 233 238 242 247 251 255 258 261 260 256
341 338 342 345 346 347 345 342 337 328 324 327 332 329 325 325 332 334 334 323 317 299 264 247 249 248 242 227 226 232 240 246 245 257 236 227 229 232 224 222 231 234 233 233 231 234 239 247 246 249 255 259 251 253
324 327 326 327 328 330 330 330 329 320 319 320 320 322 312 305 305 310 319 321 315 306 291 259 246 247 245 231 228 229 230 235 236 240 233 234 239 235 220 216 221 230 234 236 237 236 238 242 247 248 259 254 250 248
316 317 316 317 317 317 317 319 321 315 309 311 307 305 303 296 289 287 290 294 297 293 287 279 258 244 246 244 240 239 242 241 239 239 235 233 230 224 240 228 220 231 237 239 246 234 227 231 245 255 247 255 256 269
310 311 312 312 311 312 313 314 314 311 306 303 302 294 298 296 289 283 282 278 278 279 278 267 264 251 244 239 239 242 243 243 239 235 235 234 234 236 239 238 231 234 237 241 245 246 237 241 246 253 249 249 241 252
312 313 313 315 316 315 312 310 310 307 305 300 293 287 285 284 284 283 280 274 269 264 264 266 253 245 236 231 234 235 237 239 241 239 237 236 236 238 235 230 236 238 233 241 245 246 248 248 249 248 255 258 243 239
316 316 314 314 312 310 308 305 302 300 297 295 290 284 281 279 277 275 275 273 263 257 253 250 249 248 240 235 230 229 231 234 239 242 241 239 240 241 236 228 229 236 238 240 242 245 250 250 251 256 263 265 259 258
320 317 314 313 313 313 310 306 305 301 296 291 287 283 279 278 274 270 265 262 257 252 248 245 240 240 241 239 236 239 241 240 237 240 243 245 240 239 236 232 234 238 241 243 248 252 253 255 257 258 256 255 256 260
320 321 322 321 318 314 311 307 304 302 299 295 290 287 283 279 277 273 269 261 253 248 242 241 240 237 232 235 236 238 243 246 246 240 242 242 243 243 242 237 236 236 239 243 245 248 250 253 254 254 253 251 251 255
323 324 323 322 319 315 313 310 309 306 302 299 295 292 286 281 276 273 268 262 257 252 245 241 239 237 233 233 234 232 230 244 244 241 244 242 241 240 242 241 241 240 242 243 243 247 252 257 261 262 263 263 265 266
326 326 328 325 320 318 318 314 313 311 309 306 305 303 297 289 279 274 269 262 256 250 247 243 237 234 235 234 236 236 239 244 245 240 240 237 241 241 243 245 244 240 242 245 250 254 257 260 262 263 265 268 268 269
329 328 328 324 322 322 320 320 318 317 313 310 308 306 302 298 289 275 265 258 252 247 243 242 238 227 232 236 237 238 242 245 245 248 245 240 240 243 244 245 247 250 251 252 250 250 252 256 259 262 265 268 270 274
331 326 327 328 326 324 324 322 321 320 322 321 321 321 319 310 295 270 258 250 241 232 232 226 234 238 224 229 235 238 243 244 245 236 237 241 246 245 242 241 244 247 251 255 260 263 266 267 270 269 268 269 270 272
329 328 329 329 328 328 328 325 322 330 329 328 330 331 342 342 332 297 266 235 222 226 229 222 219 218 221 229 230 232 238 238 229 228 233 239 242 243 243 242 246 251 252 255 258 262 265 265 272 274 272 272 277 282
330 332 330 329 329 330 330 327 325 331 334 335 334 332 324 335 333 318 295 252 234 230 226 221 231 227 233 214 226 220 229 226 227 227 230 234 238 247 251 254 254 254 257 262 267 266 271 275 273 273 276 275 280 284
328 330 330 330 334 334 333 333 333 336 342 346 344 333 327 334 327 325 318 271 245 235 226 227 231 234 233 237 258 224 214 217 219 220 226 232 237 247 255 259 265 262 260 266 267 269 272 271 272 275 277 281 286 287
326 329 328 332 334 336 336 339 341 345 351 359 359 351 351 346 340 346 330 288 264 247 218 221 227 236 240 214 247 212 204 211 217 221 229 239 248 252 254 256 259 261 262 263 264 263 264 268 274 279 283 287 286 284
325 327 325 333 332 338 340 342 350 359 7 12 4 3 10 17 1 338 356 27 158 155 163 177 213 240 236 223 204 191 187 185 209 226 237 247 252 251 253 257 256 266 264 261 264 268 273 277 282 283 282 281 279 278
323 321 325 331 332 335 339 340 349 14 30 24 13 20 28 35 17 22 50 118 172 179 195 187 139 209 161 168 190 195 206 209 213 224 239 251 246 251 252 254 253 252 256 259 264 270 274 275 278 276 272 276 281 278
317 318 331 328 335 341 356 1 7 355 346 14 10 18 27 22 40 65 77 83 105 90 103 144 137 163 177 180 188 198 183 191 222 263 248 240 243 256 252 255 259 259 265 269 273 278 282 281 277 274 274 278 277 276
307 322 331 323 335 6 28 32 35 27 20 25 30 27 26 33 41 59 76 73 81 81 97 108 131 142 159 168 169 179 196 214 227 232 237 236 255 250 240 242 246 252 259 269 280 285 285 282 272 265 270 270 271 276
289 323 319 319 83 87 79 68 65 58 59 65 68 59 45 36 33 42 47 26 19 30 92 97 102 123 138 143 153 164 172 181 196 214 222 211 209 212 218 236 246 254 258 285 313 320 318 307 285 278 276 275 285 288
278 317 241 170 138 121 109 87 80 78 74 69 68 59 50 36 29 25 28 32 37 36 23 24 74 135 192 182 184 170 159 176 188 187 189 174 162 168 165 162 152 160 214 302 321 322 312 305 304 299 291 287 288 290
294 273 176 146 126 110 97 87 74 62 62 67 70 64 53 42 37 36 30 23 20 22 33 67 83 101 129 177 177 188 177 174 169 175 171 162 166 158 155 159 178 282 317 322 320 320 323 325 326 325 321 318 313 311
259 164 140 126 110 96 83 65 51 41 29 7 8 25 27 31 7 28 34 40 50 59 49 92 111 124 122 127 171 179 164 152 148 148 156 169 181 189 195 230 304 320 325 330 336 339 335 331 330 329 326 325 324 320
116 120 126 122 105 88 47 25 24 25 19 13 4 237 296 297 315 12 40 51 70 42 81 96 101 129 139 140 142 129 142 144 156 161 175 183 199 208 228 299 325 318 321 336 341 346 339 334 328 325 323 319 317 314
101 106 109 111 80 41 23 20 11 359 346 339 337 326 249 250 265 289 94 83 81 60 85 73 70 114 150 167 179 170 151 146 159 166 181 204 234 275 297 306 308 316 325 333 334 335 335 333 331 330 328 325 322 319
85 81 78 70 56 38 26 11 358 355 355 356 356 351 258 235 259 313 274 143 146 122 111 91 88 92 125 139 137 135 132 139 148 176 210 249 266 288 299 306 313 315 308 310 317 318 325 329 327 324 320 320 318 318
76 68 57 47 32 20 13 4 1 3 7 6 8 16 315 240 293 226 214 173 168 172 172 98 97 108 112 117 117 115 125 144 160 183 249 285 295 298 299 306 306 308 304 303 307 314 321 321 321 322 319 318 317 316
76 62 37 38 37 24 24 22 19 25 31 37 46 45 58 82 91 127 157 163 169 169 167 149 142 135 117 110 113 125 124 144 259 293 306 305 305 306 312 316 315 312 309 310 314 318 320 318 318 317 316 313 312 314
61 49 39 38 38 36 33 37 37 41 43 40 52 64 72 81 99 100 106 110 123 144 172 173 155 149 150 122 117 113 327 308 315 312 301 307 314 315 314 317 317 318 316 314 315 317 320 322 320 319 318 316 318 320